User: anonymous   Login
Location: Gu�tanj
(46.5431°N, 14.9692°E)
Time: 16:32:12
(UTC+00:00)
Language:

Cosmos 2366 rocket - Orbit

View from above orbital plane
View from above orbital plane
View from above satellite
View from above satellite

Ground track
Ground track

The orbit data is extracted from the following two-line orbital elements,

1 25893U 99045B   21135.82396294  .00000046  00000-0  31445-4 0  9990
2 25893  82.9296  41.0427 0029901  61.0804   2.8123 13.76550332 91206
Epoch (UTC): 15 May 2021 19:46:30
Eccentricity: 0.0029901
inclination: 82.9296°
perigee height: 954 km
apogee height: 998 km
right ascension of ascending node: 41.0427°
argument of perigee: 61.0804°
revolutions per day: 13.76550332
mean anomaly at epoch: 2.8123°
orbit number at epoch: 9120

The dashed part of the orbit path shows where the satellite is in the earth's shadow,  

DLR